Flag Weather past 2 weeks in Zerbst/Anhalt, Saxony-Anhalt, Germany

Now
44 °F

Clear.


Feels Like: 44 °F
Forecast: 37 / 45 °F
Wind: 2 mph from West

Location: Magdeburg

Current Time: Nov 24, 2014 at 5:20:26 PM

Latest Report: Nov 24, 2014 at 5:00 PM


Visibility: 28 mi

Pressure: 30.27 "Hg

Humidity: 87%

Dew point: 41 °F

Location of Zerbst/AnhaltLocation

Historic Weather in Zerbst/Anhalt — Graph

°F

Zerbst/Anhalt temperature yesterday

Maximum temperature yesterday: 52 °F (at 1:00 PM)
Minimum temperature yesterday: 38 °F (at 5:00 AM)
Average temperature yesterday: 43 °F

Past Weeks' High & Low Weather Summary

 TemperatureHumidityPressure
High56 °F (Nov 14, 3:00 PM)99% (Nov 10, 2:00 AM)30.38 "Hg (Nov 10, 2:00 AM)
Low38 °F (Nov 23, 5:00 AM)72% (Nov 23, 1:00 PM)29.53 "Hg (Nov 16, 2:00 PM)
Average45 °F91%29.97 "Hg
* Reported Nov 9 3:00 PM — Nov 24 3:00 PM, Zerbst/Anhalt, Weather by CustomWeather, © 2014

Note: Actual official high and low records may vary slightly from our data, if they occured in-between our weather recording intervals... More about our weather records

Advertising

Zerbst/Anhalt weather history for previous 24 hours

 ConditionsComfort  
Time TempWeatherWind HumidityBarometerVisibility
3:00 PM
Nov 24
49 °FScattered clouds.2 mph77%30.24 "Hg37 mi
2:00 PM50 °FPartly sunny.3 mph76%30.23 "Hg37 mi
1:00 PM48 °FPartly sunny.2 mph82%30.21 "Hg37 mi
12:00 PM51 °FPartly sunny.2 mph82%30.19 "Hg37 mi
11:00 AM49 °FOvercast.5 mph89%30.17 "Hg16 mi
9:00 AM49 °FLight rain. Overcast.3 mph91%30.13 "Hg10 mi
8:00 AM51 °FLight rain. Overcast.6 mph85%30.11 "Hg6 mi
7:00 AM46 °FOvercast.1 mph87%30.06 "Hg16 mi
6:00 AM46 °FOvercast.2 mph87%30.02 "Hg12 mi
5:00 AM45 °FOvercast.2 mph85%30.02 "Hg11 mi
3:00 AM44 °FOvercast.3 mph86%30.04 "Hg10 mi
2:00 AM43 °FOvercast.3 mph84%30.05 "Hg11 mi
1:00 AM43 °FOvercast.5 mph83%30.06 "Hg11 mi
12:00 AM43 °FOvercast.3 mph84%30.08 "Hg9 mi
11:00 PM
Nov 23
43 °FPassing clouds.3 mph85%30.08 "Hg7 mi
9:00 PM44 °FPassing clouds.2 mph87%30.10 "Hg6 mi
8:00 PM45 °FClear.5 mph86%30.10 "Hg6 mi
7:00 PM46 °FPassing clouds.3 mph86%30.11 "Hg9 mi
6:00 PM47 °FPassing clouds.2 mph84%30.14 "Hg10 mi
5:00 PM48 °FPassing clouds.2 mph83%30.14 "Hg12 mi
Weather by CustomWeather, © 2014

See weather overviewHow to use our weather pages